Regional Weather Roundup
Issued by NWS Albany, NY

Home | Current Version | Previous Version | Text Only | Print | Product List | Glossary On
Versions: 1 2 3 4 5 6 7 8 9 10 11 12 13 14 15 16 17 18 19 20 21 22 23 24 25 26 27 28 29 30 31 32 33 34 35 36 37 38 39 40 41 42 43 44 45 46 47 48 49 50
157
ASUS41 KALY 212010
RWRALY

NEW YORK STATE HOURLY WEATHER ROUNDUP
NATIONAL WEATHER SERVICE ALBANY NY
400 PM EDT SAT OCT 21 2017

NOTE: "FAIR" INDICATES FEW OR NO CLOUDS BELOW 12,000 FEET WITH NO
SIGNIFICANT WEATHER AND/OR NO OBSTRUCTIONS TO VISIBILITY.

NYZ032-033-038>043-046>054-057>066-NYZ062>081-082-084-212100-
EAST


CITY           SKY/WX    TMP DP  RH WIND       PRES   REMARKS
ALBANY         CLOUDY    72  44  36 SE3       30.28R
GLENS FALLS    CLOUDY    70  46  42 E5        30.26S
POUGHKEEPSIE   CLOUDY    77  40  26 SW7       30.27S
NEWBURGH       PTSUNNY   75  41  29 W6        30.30S
MONTGOMERY     CLOUDY    75  43  31 W5        30.28S
WHITE PLAINS   CLOUDY    77  36  22 VRB3      30.29S
ISLIP          PTSUNNY   70  42  36 SW9       30.31S
NEW YORK CITY  CLOUDY    75  47  36 SW9       30.29S
CENTRAL PARK   CLOUDY    76  38  25 VRB5      30.32S
$$

NYZ005>009-017-018-044>046-055-056-212100-
CENTRAL


CITY           SKY/WX    TMP DP  RH WIND       PRES   REMARKS
FULTON         CLOUDY    73  42  32 CALM      30.27S
SYRACUSE       CLOUDY    70  49  47 E6        30.26F
ROME           CLOUDY    71  46  40 NW7       30.28F
ELMIRA         CLOUDY    76  47  35 CALM      30.28S
BINGHAMTON     CLOUDY    70  38  31 SW6       30.32S
MONTICELLO     CLOUDY    72  38  29 W3        30.33S
$$

NYZ026>034-041>043-087-212100-
NORTH


CITY           SKY/WX    TMP DP  RH WIND       PRES   REMARKS
WATERTOWN      CLOUDY    67  45  45 SW5       30.26F
FORT DRUM      NOT AVBL
OGDENSBURG     FAIR      69  51  54 SW8       30.24S
MASSENA        CLOUDY    72  52  49 SW10      30.23S
SARANAC LAKE   CLOUDY    70  48  45 SW6       30.27R
PLATTSBURGH    SUNNY     67  48  50 SE8       30.22S
$$

NYZ001>004-010>016-019>021-085-212100-
WEST


CITY           SKY/WX    TMP DP  RH WIND       PRES   REMARKS
NIAGARA FALLS  CLOUDY    74  44  34 SW10      30.24R
BUFFALO        CLOUDY    73  44  35 W7        30.24F
DUNKIRK        CLOUDY    73  47  39 SE6       30.24F
JAMESTOWN      PTSUNNY   69  45  41 S7        30.29S
WELLSVILLE     CLOUDY    73  34  23 S5        30.32F
ROCHESTER      CLOUDY    73  46  38 SW6       30.26S
PENN YAN       CLOUDY    73  45  36 CALM      30.28S
$$

             KEY
       WCI = WIND CHILL INDEX
       VSB = VISIBILITY
       HX  = HEAT INDEX
$$




USA.gov is the U.S. government's official web portal to all federal, state and local government web resources and services.